GW2041 Weather Reports


Display with metric or nautical units.
time (UTC)temp
F
wind
direction
speed
MPH
gust
MPH
rain 1hr
in
rain 24hr
in
rain mn
in
humidity
%
barometer
mb
20260508161655 64 338 2.0 4.0 0.00 0.00 0.00 50 1016.0
20260508160655 67 23 4.0 0.0 0.00 0.00 0.00 48 1016.0
20260508155820 68 45 3.0 9.0 0.00 0.00 0.00 48 1015.7
20260508153820 67 23 4.0 8.0 0.00 0.00 0.00 48 1015.7
20260508152817 65 23 3.0 6.0 0.00 0.00 0.00 52 1015.7
20260508152249 63 45 2.0 4.0 0.00 0.00 0.00 52 1015.6
20260508150815 65 338 2.0 7.0 0.00 0.00 0.00 49 1015.6
20260508145815 68 158 2.0 5.0 0.00 0.00 0.00 48 1015.8
20260508144815 67 23 2.0 4.0 0.00 0.00 0.00 50 1015.8
20260508143817 66 315 2.0 5.0 0.00 0.00 0.00 50 1015.6
20260508142817 66 23 2.0 5.0 0.00 0.00 0.00 51 1015.6
20260508141814 68 23 2.0 6.0 0.00 0.00 0.00 48 1015.6
20260508140812 67 315 1.0 3.0 0.00 0.00 0.00 54 1015.6
20260508135813 65 338 2.0 7.0 0.00 0.00 0.00 53 1015.6
20260508134818 65 23 3.0 9.0 0.00 0.00 0.00 55 1015.6
20260508133813 63 135 3.0 9.0 0.00 0.00 0.00 55 1015.5
20260508132813 63 68 2.0 5.0 0.00 0.00 0.00 56 1015.5
20260508131813 62 0 3.0 11.0 0.00 0.00 0.00 55 1015.6
20260508130813 64 68 4.0 11.0 0.00 0.00 0.00 55 1015.6
20260508125814 63 158 3.0 4.0 0.00 0.00 0.00 56 1015.6
20260508124811 63 338 3.0 3.0 0.00 0.00 0.00 55 1015.6
20260508123812 63 23 3.0 6.0 0.00 0.00 0.00 55 1015.7
20260508122811 66 315 2.0 6.0 0.00 0.00 0.00 55 1015.7
20260508121810 64 23 3.0 8.0 0.00 0.00 0.00 56 1015.4
20260508120811 65 68 3.0 5.0 0.00 0.00 0.00 55 1015.4
20260508115806 64 23 4.0 6.0 0.00 0.00 0.00 56 1015.5
20260508114805 65 23 4.0 9.0 0.00 0.00 0.00 55 1015.5
20260508113810 64 315 2.0 3.0 0.00 0.00 0.00 57 1015.4
20260508112804 62 225 3.0 7.0 0.00 0.00 0.00 57 1015.4
20260508111806 63 23 2.0 5.0 0.00 0.00 0.00 58 1015.5
20260508110810 63 315 2.0 3.0 0.00 0.00 0.00 59 1015.5
20260508105804 62 338 3.0 7.0 0.00 0.00 0.00 59 1015.6
20260508105237 61 68 3.0 5.0 0.00 0.00 0.00 61 1015.6
20260508103806 61 23 2.0 6.0 0.00 0.00 0.00 61 1015.3
20260508102802 62 338 2.0 5.0 0.00 0.00 0.00 60 1015.3
20260508101801 62 23 2.0 4.0 0.00 0.00 0.00 61 1015.2
20260508100805 65 23 3.0 0.0 0.00 0.00 0.00 57 1015.2
20260508100315 62 45 2.0 4.0 0.00 0.00 0.00 58 1015.2
20260508095317 63 315 3.0 7.0 0.00 0.00 0.00 58 1015.3
20260508094316 65 23 3.0 6.0 0.00 0.00 0.00 57 1015.3
20260508093314 65 338 3.0 11.0 0.00 0.00 0.00 59 1015.5
20260508092315 63 45 2.0 5.0 0.00 0.00 0.00 62 1015.5
20260508091750 62 248 3.0 7.0 0.00 0.00 0.00 63 1015.5
20260508090305 61 135 4.0 11.0 0.00 0.00 0.00 62 1015.5
20260508085306 62 23 2.0 6.0 0.00 0.00 0.00 62 1015.6
20260508084304 63 45 2.0 4.0 0.00 0.00 0.00 64 1015.6
20260508083302 63 23 2.0 4.0 0.00 0.00 0.00 64 1015.6
20260508082744 62 180 3.0 5.0 0.00 0.00 0.00 67 1015.6
20260508081302 62 45 3.0 4.0 0.00 0.00 0.00 73 1015.3
20260508080301 60 23 2.0 4.0 0.00 0.00 0.00 77 1015.3
20260508075307 58 23 2.0 4.0 0.00 0.00 0.00 81 1015.2
20260508074738 55 23 2.0 9.0 0.00 0.00 0.00 88 1015.2
20260508073734 52 23 2.0 9.0 0.00 0.00 0.00 90 1015.3
20260508072737 51 68 1.0 6.0 0.00 0.00 0.00 91 1015.3
20260508071258 50 338 1.0 2.0 0.00 0.00 0.00 92 1015.5
20260508070258 49 45 1.0 3.0 0.00 0.00 0.00 93 1015.5
20260508065258 48 338 0.0 2.0 0.00 0.00 0.00 93 1015.1
20260508064749 47 0 0.0 3.0 0.00 0.00 0.00 94 1015.1
20260508063259 46 23 0.0 2.0 0.00 0.00 0.00 94 1014.8
20260508062247 45 135 0.0 1.0 0.00 0.00 0.00 94 1014.8
20260508061246 44 45 0.0 2.0 0.00 0.00 0.00 93 1014.7
20260508060242 44 23 0.0 3.0 0.00 0.00 0.00 93 1014.7
20260508055716 42 135 0.0 1.0 0.00 0.00 0.00 93 1014.4
20260508054243 41 68 0.0 1.0 0.00 0.00 0.00 93 1014.4
20260508053241 41 23 0.0 2.0 0.00 0.00 0.00 93 1014.4
20260508052245 40 338 0.0 2.0 0.00 0.00 0.00 93 1014.4
20260508051246 39 45 0.0 2.0 0.00 0.00 0.00 92 1014.3
20260508050243 40 68 0.0 0.0 0.00 0.00 0.00 92 1014.3
20260508045241 39 68 0.0 0.0 0.00 0.00 0.00 92 1014.1
20260508044710 39 68 0.0 0.0 0.00 0.00 0.00 92 1014.1
20260508043718 39 68 0.0 0.0 0.00 0.00 0.00 92 1014.3
20260508042708 39 68 0.0 0.0 0.00 0.00 0.00 92 1014.3
20260508041236 39 68 0.0 0.0 0.00 0.00 0.00 91 1014.2
20260508040229 39 68 0.0 0.0 0.00 0.00 0.00 91 1014.2
20260508035224 39 68 0.0 0.0 0.00 0.00 0.00 91 1014.1
20260508034656 39 68 0.0 0.0 0.00 0.00 0.00 91 1014.1
20260508033801 39 68 0.0 0.0 0.00 0.00 0.00 91 1014.3
20260508032328 39 68 0.0 0.0 0.00 0.00 0.00 91 1014.3
20260508031328 39 68 0.0 0.0 0.00 0.00 0.00 91 1014.1
20260508030330 39 68 0.0 0.0 0.00 0.00 0.00 91 1014.1
20260508025328 39 68 0.0 0.0 0.00 0.00 0.00 91 1014.3
20260508024329 39 68 0.0 0.0 0.00 0.00 0.00 90 1014.3
20260508023333 39 68 0.0 0.0 0.00 0.00 0.00 90 1014.5
20260508022327 39 68 0.0 0.0 0.00 0.00 0.00 90 1014.5
20260508021324 39 68 0.0 0.0 0.00 0.00 0.00 90 1014.5
20260508020317 40 68 0.0 0.0 0.00 0.00 0.00 90 1014.5
20260508015748 40 68 0.0 0.0 0.00 0.00 0.00 90 1014.5
20260508014316 39 68 0.0 0.0 0.00 0.00 0.00 90 1014.5
20260508013311 40 68 0.0 0.0 0.00 0.00 0.00 89 1014.8
20260508012312 40 68 0.0 0.0 0.00 0.00 0.00 89 1014.8
20260508011313 40 68 0.0 0.0 0.00 0.00 0.00 89 1014.8
20260508010313 40 68 0.0 0.0 0.00 0.00 0.00 89 1014.8
20260508005310 41 68 0.0 0.0 0.00 0.00 0.00 89 1015.0
20260508004300 41 68 0.0 0.0 0.00 0.00 0.00 88 1015.0
20260508003304 41 68 0.0 0.0 0.00 0.00 0.00 88 1015.1
20260508002300 41 68 0.0 0.0 0.00 0.00 0.00 88 1015.1
20260508001300 41 68 0.0 0.0 0.00 0.00 0.00 88 1015.1
20260508000307 41 68 0.0 0.0 0.00 0.00 0.00 88 1015.1
20260507235301 41 68 0.0 0.0 0.00 0.00 0.00 87 1015.1
20260507234301 42 68 0.0 0.0 0.00 0.00 0.00 87 1015.1
20260507233305 42 68 0.0 0.0 0.00 0.00 0.00 86 1015.1
20260507232247 42 68 0.0 0.0 0.00 0.00 0.00 86 1015.1
20260507231249 42 68 0.0 0.0 0.00 0.00 0.00 86 1015.1
20260507230726 42 68 0.0 0.0 0.00 0.00 0.00 85 1015.1
20260507225247 43 68 0.0 0.0 0.00 0.00 0.00 85 1015.4
20260507224247 43 68 0.0 0.0 0.00 0.00 0.00 85 1015.4
20260507223256 44 68 0.0 0.0 0.00 0.00 0.00 84 1015.5
20260507222246 44 68 0.0 0.0 0.00 0.00 0.00 84 1015.5
20260507221247 44 68 0.0 0.0 0.00 0.00 0.00 84 1015.5
20260507220238 44 68 0.0 0.0 0.00 0.00 0.00 83 1015.5
20260507215234 44 68 0.0 0.0 0.00 0.00 0.00 82 1015.8
20260507214233 45 68 0.0 0.0 0.00 0.00 0.00 82 1015.8
20260507213236 46 68 0.0 0.0 0.00 0.00 0.00 81 1016.0
20260507212218 46 68 0.0 0.0 0.00 0.00 0.00 80 1016.0
20260507211654 46 68 0.0 0.0 0.00 0.00 0.00 79 1016.1
20260507210223 47 23 0.0 0.0 0.00 0.00 0.00 78 1016.1
20260507205315 47 45 0.0 0.0 0.00 0.00 0.00 79 1016.1
20260507204304 47 23 0.0 0.0 0.00 0.00 0.00 78 1016.1
20260507203301 48 0 0.0 2.0 0.00 0.00 0.00 77 1016.0
20260507202306 48 0 0.0 3.0 0.00 0.00 0.00 77 1016.0
20260507201306 48 338 0.0 2.0 0.00 0.00 0.00 76 1015.8
20260507200302 49 45 0.0 2.0 0.00 0.00 0.00 76 1015.8
20260507195305 49 0 0.0 2.0 0.00 0.00 0.00 75 1015.8
20260507194306 49 23 0.0 2.0 0.00 0.00 0.00 74 1015.8
20260507193248 50 293 0.0 2.0 0.00 0.00 0.00 73 1015.6
20260507192247 50 0 0.0 2.0 0.00 0.00 0.00 72 1015.6
20260507191250 51 90 1.0 4.0 0.00 0.00 0.00 71 1015.5
20260507190249 51 203 0.0 1.0 0.00 0.00 0.00 70 1015.5
20260507185248 52 45 0.0 2.0 0.00 0.00 0.00 69 1015.5
20260507184252 53 23 1.0 4.0 0.00 0.00 0.00 68 1015.5
20260507182249 54 23 2.0 6.0 0.00 0.00 0.00 66 1015.2
20260507181248 54 293 2.0 7.0 0.00 0.00 0.00 65 1015.2
20260507180249 55 270 2.0 4.0 0.00 0.00 0.00 64 1015.2
20260507175249 56 338 3.0 8.0 0.00 0.00 0.00 63 1015.1
20260507174717 57 45 3.0 7.0 0.00 0.00 0.00 62 1015.1
20260507173237 58 315 3.0 8.0 0.00 0.00 0.00 61 1015.1
20260507172236 58 68 2.0 9.0 0.00 0.00 0.00 60 1015.1
20260507171237 59 0 3.0 6.0 0.00 0.00 0.00 59 1015.0
20260507170720 60 68 3.0 7.0 0.00 0.00 0.00 58 1015.0
20260507165239 61 338 3.0 9.0 0.00 0.00 0.00 55 1014.9
20260507164245 63 338 3.0 10.0 0.00 0.00 0.00 53 1014.9
20260507163233 64 338 3.0 5.0 0.00 0.00 0.00 53 1014.5
20260507162233 67 45 3.0 6.0 0.00 0.00 0.00 51 1014.5